[[{"header":{"parameterUnit":"m.s-1","parameterCategory":1,"la1":30.2992,"la2":30.254,"lo1":-89.0895,"lo2":-89.0443,"dy":0.0025,"dx":0.0025,"nx":19,"ny":19,"refTime":"2026-05-18T03:00:00:Z","depth":0,"parameterNumber":2,"parameterNumberName":"U-component_of_WINDS"},"data":[0,0,0,-1.1336,-1.1337,-1.1403,-1.1403,-1.1486,-1.1487,0,0,0,0,0,0,0,0,0,0,0,-1.1315,-1.1315,-1.1336,-1.1338,-1.1403,-1.1403,-1.1486,-1.1487,0,0,0,0,0,0,0,0,0,0,0,-1.1315,-1.1315,-1.1316,-1.1338,-1.1403,-1.1403,-1.1486,-1.1437,0,0,0,0,0,0,0,0,0,0,-1.1374,-1.1352,-1.1315,-1.1316,-1.1338,-1.1403,-1.1403,-1.1435,-1.144,-1.1456,0,-1.1468,0,-1.1479,-1.1493,-1.1493,0,0,0,-1.1339,-1.1348,-1.1367,-1.1316,-1.1339,-1.1403,-1.1374,-1.1438,-1.1444,-1.1463,-1.1469,-1.1473,-1.148,-1.1493,-1.1493,-1.1575,-1.1575,0,0,-1.1336,-1.1326,-1.1363,-1.1371,-1.1359,-1.1372,-1.1376,-1.1442,-1.1449,-1.147,-1.1475,-1.1482,-1.1494,-1.1494,-1.1574,-1.1575,0,0,0,-1.1324,-1.1324,-1.1341,-1.1367,-1.1379,-1.1374,-1.1378,-1.1446,-1.1452,-1.1476,-1.1483,-1.1494,-1.1495,-1.1574,-1.1574,-1.1579,0,0,0,-1.1322,-1.1317,-1.1339,-1.1334,-1.1378,-1.1413,-1.1381,-1.1447,-1.1455,-1.1482,-1.1494,-1.1496,-1.1574,-1.1574,-1.1578,-1.1582,0,0,0,-1.1311,-1.1316,-1.1324,-1.1334,-1.1361,-1.1412,-1.1422,-1.1449,-1.146,-1.1493,-1.1496,-1.1574,-1.1574,-1.1577,-1.1581,-1.16,0,0,0,-1.1297,-1.1328,-1.1324,-1.1361,-1.1361,-1.1414,-1.1422,-1.1463,-1.1492,-1.1494,-1.1574,-1.1574,-1.1577,-1.1581,-1.16,-1.1614,-1.162,0,0,-1.1331,-1.1332,-1.1355,-1.1353,-1.1404,-1.1405,-1.1457,-1.1494,-1.1507,-1.1552,-1.1554,-1.1578,-1.1581,-1.16,-1.1654,-1.1658,0,0,0,-1.1362,-1.1378,-1.1394,-1.142,-1.1448,-1.1472,-1.1502,-1.1516,-1.1554,-1.1527,-1.1591,-1.1593,-1.1605,-1.1612,-1.1616,-1.1626,-1.1578,-1.1578,-1.1577,-1.1395,-1.1409,-1.1447,-1.1469,-1.1495,-1.1524,-1.1547,-1.157,-1.1578,-1.1593,-1.1606,-1.1636,-1.1645,-1.1647,-1.1658,-1.1615,-1.1615,-1.1615,-1.1615,-1.1445,-1.147,-1.1478,-1.1518,-1.1532,-1.1567,-1.1597,-1.1601,-1.1636,-1.1628,-1.1638,-1.1628,-1.1651,-1.1661,-1.1616,-1.1616,-1.1616,-1.1616,-1.1616,-1.1468,-1.1483,-1.1498,-1.1537,-1.1566,-1.1588,-1.162,-1.1633,-1.1646,-1.1656,-1.1672,-1.1672,-1.1673,-1.1663,-1.1663,-1.1663,-1.1663,-1.1663,-1.1663,-1.1486,-1.1503,-1.1528,-1.156,-1.1578,-1.1604,-1.1634,-1.1654,-1.1678,-1.1685,-1.1685,-1.1691,-1.1651,-1.164,-1.1665,-1.1665,-1.1664,-1.1664,-1.1664,-1.1531,-1.1523,-1.1561,-1.1579,-1.1618,-1.1646,-1.1661,-1.1699,-1.1717,-1.1733,-1.1736,-1.1705,-1.1707,-1.1704,-1.1696,-1.1733,-1.1733,-1.1733,-1.1733,-1.155,-1.1552,-1.1594,-1.1622,-1.1652,-1.167,-1.1714,-1.1738,-1.1762,-1.1774,-1.1771,-1.176,-1.1757,-1.1762,-1.1758,-1.175,-1.18,-1.18,-1.18,-1.1579,-1.1584,-1.1618,-1.1639,-1.167,-1.1697,-1.1739,-1.1772,-1.1798,-1.1803,-1.1784,-1.1781,-1.1765,-1.1759,-1.1763,-1.1756,-1.1742,0,0]},{"header":{"parameterUnit":"m.s-1","parameterCategory":1,"la1":30.2992,"la2":30.254,"lo1":-89.0895,"lo2":-89.0443,"dy":0.0025,"dx":0.0025,"nx":19,"ny":19,"refTime":"2026-05-18T03:00:00:Z","depth":0,"parameterNumber":3,"parameterNumberName":"V-component_of_WINDS"},"data":[0,0,0,1.6183,1.6184,1.6243,1.6243,1.6311,1.6311,0,0,0,0,0,0,0,0,0,0,0,1.6162,1.6162,1.6183,1.6185,1.6243,1.6243,1.6311,1.6311,0,0,0,0,0,0,0,0,0,0,0,1.6162,1.6162,1.6162,1.6185,1.6243,1.6243,1.6311,1.6269,0,0,0,0,0,0,0,0,0,0,1.6214,1.6189,1.6162,1.6162,1.6185,1.6243,1.6243,1.6267,1.6272,1.6282,0,1.6289,0,1.6301,1.6315,1.6316,0,0,0,1.6188,1.6186,1.6205,1.6162,1.6186,1.6242,1.6217,1.627,1.6275,1.6287,1.629,1.6292,1.6302,1.6316,1.6316,1.6361,1.6361,0,0,1.6185,1.617,1.6202,1.6208,1.6198,1.6216,1.6219,1.6273,1.6275,1.629,1.6294,1.6303,1.6316,1.6317,1.6361,1.6361,0,0,0,1.6173,1.6167,1.6186,1.6205,1.6216,1.6217,1.6221,1.6272,1.628,1.6295,1.6304,1.6317,1.6317,1.6361,1.6361,1.6349,0,0,0,1.6171,1.6161,1.6184,1.6176,1.6215,1.6245,1.6219,1.6276,1.6282,1.6304,1.6317,1.6318,1.6361,1.6361,1.6349,1.6346,0,0,0,1.6159,1.6159,1.6166,1.6175,1.6199,1.6244,1.6255,1.6278,1.6288,1.6316,1.6318,1.6361,1.6361,1.6349,1.6346,1.6353,0,0,0,1.6142,1.6154,1.6166,1.6183,1.6199,1.6236,1.6255,1.6284,1.6306,1.6317,1.6361,1.6361,1.6349,1.6346,1.6353,1.6357,1.6356,0,0,1.6149,1.6155,1.6166,1.6178,1.621,1.6229,1.6259,1.6294,1.631,1.6343,1.6345,1.6349,1.6346,1.6353,1.6361,1.6361,0,0,0,1.6163,1.6171,1.6183,1.6204,1.6231,1.6254,1.6286,1.6299,1.6328,1.6324,1.6354,1.6353,1.6358,1.636,1.636,1.6365,1.6361,1.6361,1.6361,1.6152,1.6172,1.6193,1.622,1.624,1.6273,1.6292,1.6315,1.633,1.6337,1.6347,1.6349,1.6351,1.6351,1.6356,1.635,1.635,1.635,1.635,1.6164,1.6179,1.6199,1.6226,1.6247,1.6271,1.6303,1.6313,1.6338,1.6343,1.6348,1.6351,1.635,1.6356,1.6349,1.6349,1.6349,1.635,1.635,1.6159,1.6169,1.6185,1.6218,1.6241,1.6269,1.6292,1.6311,1.6329,1.6335,1.6347,1.6348,1.6351,1.6339,1.6339,1.6339,1.6339,1.634,1.634,1.6147,1.6165,1.6182,1.6212,1.6228,1.6252,1.6286,1.6303,1.6326,1.6339,1.6339,1.6353,1.6346,1.6344,1.634,1.634,1.634,1.634,1.634,1.6151,1.6153,1.618,1.6196,1.6233,1.6255,1.628,1.6312,1.6329,1.634,1.6354,1.6345,1.6352,1.6352,1.6351,1.6349,1.6349,1.6349,1.6349,1.6147,1.6152,1.6184,1.6208,1.6235,1.626,1.629,1.6317,1.6345,1.6357,1.636,1.636,1.6359,1.6367,1.6366,1.6365,1.6367,1.6367,1.6367,1.6151,1.616,1.6181,1.6208,1.6239,1.6266,1.6295,1.6323,1.6356,1.6368,1.6367,1.6366,1.6365,1.6364,1.6376,1.6376,1.6374,0,0]}]]